Location: ?????? ??????
(44.3742°N, 135.2221°E)
Time: 17:24:47
(UTC+00:00)

Daily predictions for brighter satellites

Satellite Brightness Start Highest point End
(mag) Time Altitude Azimuth Time Altitude Azimuth Time Altitude Azimuth
Cosmos 1933 4.2 12:02:50 10° SSW 12:06:34 47° WNW 12:10:19 10° N
BREEZE-M DEB (TANK) 4.3 12:03:21 10° W 12:11:15 45° N 12:13:57 10° ENE
DELTA 2 R/B (1) 4.0 12:06:17 10° SW 12:11:22 38° SSE 12:14:43 19° ESE
Okean 1 4.3 12:16:02 25° E 12:16:13 25° E 12:19:18 10° NE
Cosmos 2181 Rocket 4.4 12:14:49 23° SSE 12:18:19 46° E 12:24:19 10° NNE
Cosmos 158 Rocket 4.4 12:13:54 10° SSW 12:19:09 68° WNW 12:24:32 10° NNE
Cosmos 2084 Rocket 3.4 12:17:31 10° SSW 12:21:43 60° SE 12:25:55 10° NE
ARIANE 6 FM1 Upper Stage 3.9 12:18:58 10° WSW 12:22:47 42° NW 12:26:39 10° NNE
Cosmos 1980 Rocket 2.9 12:20:37 10° NNW 12:25:55 41° ENE 12:28:45 24° ESE
Cosmos 1900 4.4 12:20:58 10° NNW 12:26:06 81° NE 12:28:33 32° SE
Meteor 1-26 Rocket 4.3 12:22:16 15° S 12:27:15 88° E 12:33:17 10° N
Meteor 2-2 Rocket 4.5 12:23:44 10° SSW 12:29:37 77° W 12:35:39 10° N
USA 245 4.1 12:29:21 24° SSW 12:31:34 54° W 12:36:23 10° NNW
Cosmos 1743 4.4 12:29:02 10° NW 12:31:54 25° W 12:34:04 14° SW
Cosmos 1356 Rocket 3.3 12:31:05 34° S 12:32:46 75° E 12:36:52 10° NNE
Cosmos 2366 rocket 4.0 12:27:51 10° N 12:34:15 78° E 12:37:47 28° SSE
ATLAS 3B R/B 4.1 12:34:17 20° ESE 12:34:49 20° ESE 12:39:56 10° ENE
SL-16 R/B 4.4 12:32:42 10° N 12:35:55 15° NE 12:39:07 10° ENE
Cosmos 2208 Rocket 4.0 12:33:20 20° S 12:37:03 74° ESE 12:42:24 10° NNE
ISS -2.3 12:34:09 10° NW 12:37:16 35° NNE 12:38:46 23° ENE
BREEZE-M R/B 4.2 12:21:05 10° WNW 12:37:45 69° N 12:41:17 17° E
Terra 3.3 12:36:51 13° SSW 12:40:27 30° W 12:44:36 10° NW
CZ-4C R/B 4.0 12:34:25 10° NW 12:41:14 38° WSW 12:47:12 17° S
SL-24 R/B 4.1 12:37:16 10° NNE 12:41:34 66° ESE 12:43:06 39° S
SL-8 Rocket 4.0 12:36:53 10° N 12:43:04 82° W 12:46:34 27° S
Cosmos 1812 Rocket 3.4 12:44:01 38° S 12:45:37 87° ESE 12:49:56 10° N
Cosmos 864 Rocket 4.5 12:40:07 10° N 12:46:26 87° W 12:49:51 29° S
Meteor 2-10 4.1 12:41:00 10° N 12:46:43 79° E 12:49:04 36° SSE
Meteor 1-14 Rocket 4.4 12:43:23 10° N 12:48:57 61° ENE 12:51:07 37° SE
Cosmos 1125 Rocket 4.0 12:45:25 10° NNW 12:50:34 52° WSW 12:53:00 29° SSW
Cosmos 1733 4.2 12:51:08 10° NNW 12:53:51 28° W 12:54:26 26° WSW
Cosmos 1697 Rocket 3.1 12:52:47 10° NNW 12:58:18 55° WSW 13:00:41 32° S
Ariane Rocket 3.5 12:56:33 30° SSW 12:58:52 53° W 13:03:50 10° NNW
Cosmos 1315 Rocket 2.8 13:00:43 50° SSW 13:01:36 73° W 13:05:31 10° N
Cosmos 1805 3.2 12:59:00 10° N 13:02:12 55° ENE 13:02:12 55° ENE
Meteor 2-6 Rocket 4.2 12:59:35 30° S 13:02:39 88° W 13:08:26 10° N
Cosmos 2341 Rocket 4.4 12:57:11 10° NNW 13:03:17 57° W 13:06:50 25° SSW
Cosmos 2298 Rocket 4.0 12:58:38 10° NNW 13:03:59 86° ENE 13:05:38 46° SSE
ATLAS CENTAUR R/B 4.0 13:05:44 10° W 13:08:24 18° NW 13:11:07 10° N
Cosmos 2369 4.0 13:04:29 10° NNW 13:10:05 57° ENE 13:11:58 38° ESE
DELTA 2 DEB (DPAF) 3.7 13:06:30 10° NNE 13:10:26 89° NW 13:10:54 70° SSW
BREEZE-M DEB (TANK) 4.5 12:54:19 10° W 13:11:14 62° N 13:15:36 11° E
Cosmos 44 3.8 13:08:24 10° NW 13:12:46 43° WSW 13:13:40 38° SSW
Timation 1 Rocket 4.5 13:12:09 43° SSE 13:13:31 52° ESE 13:19:19 10° NE
Cosmos 2082 Rocket 2.1 13:13:18 43° S 13:15:07 70° ESE 13:20:43 10° NNE
NOSS 3-1 (C) 4.2 13:10:57 10° WSW 13:15:32 43° NW 13:21:03 10° NNE
Cosmos 1867 4.0 13:11:32 10° NW 13:16:48 50° WSW 13:18:12 40° SSW
ARIANE 5 R/B 3.6 13:16:52 31° E 13:17:23 32° ENE 13:21:17 10° N
USA 59 Rocket 1.9 13:21:04 12° NE 13:21:04 12° NE 13:21:21 10° NE
SeaSat 1 2.4 13:18:29 53° S 13:19:36 75° WSW 13:24:32 10° NNW
Cosmos 1842 Rocket 4.3 13:20:42 38° E 13:20:42 38° E 13:24:25 10° NNE
Cosmos 2150 Rocket 4.2 13:15:10 10° NNW 13:20:32 68° WSW 13:22:02 46° S
BlueWalker 3 2.4 13:17:35 10° WNW 13:20:32 49° W 13:20:32 49° W
Cosmos 1238 Rocket 3.6 13:21:38 35° WSW 13:22:20 39° W 13:25:33 10° N
Cosmos 1975 4.2 13:19:41 10° NNE 13:22:24 25° ENE 13:22:24 25° ENE
Meteor 1-10 Rocket 4.2 13:22:12 46° S 13:24:01 75° E 13:29:53 10° NNE
CZ-4C R/B 3.4 13:25:03 10° NNE 13:28:06 59° NNE 13:28:06 59° NNE
COSMOS 2406 3.3 13:29:16 52° SSE 13:30:10 58° ESE 13:35:46 10° NNE
CZ-2C R/B 3.9 13:29:27 10° NNE 13:33:29 50° E 13:33:29 50° E
Cosmos 2221 3.7 13:35:37 28° WSW 13:36:56 35° WNW 13:40:47 10° N
Lacrosse 5 rocket 3.2 13:35:21 10° WNW 13:36:37 16° W 13:36:37 16° W
Cosmos 1821 Rocket 4.4 13:33:45 10° NNW 13:39:41 55° W 13:41:55 36° SSW
COBE Rocket 4.1 13:37:39 10° N 13:42:45 70° WNW 13:44:10 47° SW
Cosmos 2333 Rocket 3.8 13:38:23 10° N 13:43:11 27° NE 13:45:58 18° E
Cosmos 1536 3.6 13:39:50 10° NNW 13:43:20 40° W 13:43:20 40° W
Cosmos 1766 4.3 13:40:40 10° N 13:43:04 33° NE 13:43:04 33° NE
NOSS 3-1 (A) 3.5 13:41:24 19° WSW 13:44:44 57° NW 13:50:25 10° NNE
Okean 3 Rocket 3.6 13:48:29 10° N 13:52:49 68° ENE 13:52:49 68° ENE
Meteor 2-9 Rocket 4.4 13:48:02 10° NNW 13:53:39 66° W 13:54:56 51° SSW
Cosmos 405 Rocket 3.5 13:52:41 10° NNW 13:55:06 43° NNW 13:55:06 43° NNW
Meteor 1-19 Rocket 4.5 13:54:12 43° SSW 13:56:11 71° WNW 14:02:14 10° N
Cosmos 1766 Rocket 4.1 13:52:41 10° NNW 13:56:55 48° W 13:57:04 48° W
DELTA 2 R/B (1) 4.3 13:51:53 10° WSW 13:55:28 37° SW 13:55:28 37° SW
Meteor 1-27 Rocket 3.6 13:59:03 59° SSW 14:00:09 87° W 14:05:45 10° N
Cosmos 2219 Rocket 4.4 13:56:34 10° N 14:00:26 18° NE 14:04:16 10° E
Landsat 5 3.6 13:56:44 10° NNE 14:00:29 66° NE 14:00:29 66° NE
Meteor 2-4 Rocket 3.9 14:00:43 53° ESE 14:01:22 56° E 14:07:01 10° NNE
MetOp-A 3.9 14:01:56 69° SSW 14:02:30 79° WSW 14:07:42 10° NNW
Meteor 2-15 4.3 13:59:44 10° N 14:05:52 85° E 14:07:08 59° SSE
Cosmos 1980 Rocket 3.2 14:04:51 10° NW 14:09:44 31° WSW 14:10:29 30° WSW
ALOS 2 2.8 14:12:48 63° ENE 14:12:48 63° ENE 14:17:02 10° N
ISS -1.2 14:10:53 10° WNW 14:11:41 16° WNW 14:11:41 16° WNW
Cosmos 1151 Rocket 3.9 14:16:08 40° ENE 14:16:08 40° ENE 14:19:25 10° NNE
Meteor 1-11 Rocket 4.4 14:14:57 10° NNW 14:20:06 42° W 14:21:04 38° WSW
Meteor 1-16 4.5 14:14:37 10° N 14:20:07 90° W 14:20:46 71° S
SL-16 R/B 2.2 14:15:20 10° NNW 14:21:01 74° ENE 14:21:58 60° ESE
Meteor 2-15 Rocket 4.3 14:16:25 10° N 14:22:34 84° E 14:23:42 61° SSE
ATLAS 3B R/B 2.8 14:21:28 41° SSW 14:24:29 88° SE 14:32:21 10° NE
USA 229 DEB 3.4 14:23:54 60° SSE 14:24:30 63° ESE 14:31:01 10° NE
USA 229 3.4 14:24:02 60° SSE 14:24:36 63° ESE 14:31:05 10° NE
CENTAUR R/B 3.9 14:20:21 10° NNW 14:28:17 52° NE 14:36:17 14° ESE
Cosmos 2237 4.2 14:24:01 10° NNW 14:29:39 66° WSW 14:30:09 63° SW
Cosmos 1538 Rocket 3.9 14:29:30 69° WSW 14:30:01 77° WNW 14:35:12 10° NNE
Cosmos 2322 Rocket 2.7 14:24:39 10° NNW 14:30:12 53° ENE 14:31:34 43° ESE
Cosmos 1066 Rocket 4.1 14:35:33 65° SE 14:36:04 69° E 14:41:46 10° NNE
Cosmos 1934 Rocket 4.4 14:30:06 10° NNW 14:36:08 52° W 14:37:31 44° SW
Sich 1 3.3 14:32:10 10° NNW 14:35:47 59° NW 14:35:47 59° NW
Cosmos 1535 Rocket 4.5 14:32:26 10° NNW 14:38:46 75° W 14:39:58 59° SSW
PSLV R/B 3.8 14:35:57 10° NNE 14:39:27 61° NNE 14:39:27 61° NNE
Spot 4 4.2 14:41:51 51° W 14:41:51 51° W 14:46:20 10° NNW
Meteor 1-18 Rocket 4.1 14:42:21 69° S 14:43:06 84° E 14:49:00 10° NNE
Meteor 2-8 Rocket 4.3 14:37:15 10° N 14:43:28 87° W 14:44:33 63° S
Cosmos 2278 3.6 14:41:22 10° NNW 14:46:59 70° WSW 14:47:22 68° SW
Cosmos 1500 Rocket 4.0 14:44:51 10° NNW 14:48:39 56° WNW 14:48:39 56° WNW
Cosmos 2360 Rocket 2.4 14:44:29 10° NNW 14:50:05 64° ENE 14:51:12 52° ESE
Cosmos 1605 Rocket 4.0 14:44:40 10° NNW 14:50:58 68° W 14:52:06 57° SW
ARIANE 5 R/B 4.2 14:54:16 24° W 14:54:16 24° W 14:57:20 10° NW
H-2A R/B 4.3 14:53:29 21° ENE 14:53:50 21° ENE 14:56:49 10° NNE
Cosmos 1633 Rocket 4.1 14:52:07 10° N 14:56:06 37° ENE 14:56:06 37° ENE
Cosmos 2082 Rocket 4.3 14:55:29 10° W 14:59:44 22° NW 15:04:01 10° N
Cosmos 1805 Rocket 4.4 15:00:54 10° NNW 15:04:35 41° WNW 15:04:35 41° WNW
Celestis-02/Orion 38 4.4 15:05:07 77° SE 15:05:31 88° ENE 15:10:38 10° NNW
USA 59 Rocket 2.0 15:06:56 13° NW 15:07:31 14° NW 15:09:09 10° N
ASTEX 1 3.3 15:04:16 10° N 15:09:14 84° W 15:09:20 83° WSW
GP-B 3.3 15:06:31 10° N 15:10:30 64° NW 15:10:30 64° NW
Cosmos 1328 Rocket 3.8 15:18:38 63° NE 15:18:38 63° NE 15:22:27 10° NNE
Cosmos 2112 Rocket 3.8 15:19:58 77° SSE 15:20:14 80° ESE 15:25:29 10° NNE
Cosmos 1153 Rocket 4.4 15:14:25 10° NNW 15:20:38 69° W 15:21:40 58° SW
Exosat Rocket 4.1 15:17:46 10° NW 15:22:12 44° W 15:22:12 44° W
Cosmos 1420 Rocket 3.9 15:17:14 10° NNW 15:22:32 73° WSW 15:22:41 72° WSW
Cosmos 2333 Rocket 2.3 15:22:14 10° NNW 15:27:49 55° WSW 15:27:58 55° WSW
Cosmos 1758 4.2 15:27:18 10° N 15:30:31 43° NE 15:30:31 43° NE
Cosmos 1727 Rocket 4.2 15:35:18 49° SW 15:36:41 60° W 15:42:50 10° N
Cosmos 2219 Rocket 2.0 15:39:28 10° NNW 15:45:07 85° WSW 15:46:01 64° SSE
Cosmos 2333 4.1 15:40:18 10° NNW 15:45:53 62° WSW 15:46:16 61° SW
Cosmos 2016 Rocket 4.0 15:42:02 10° N 15:48:13 73° E 15:50:08 46° SSE
Cosmos 494 Rocket 3.7 15:48:15 75° SSW 15:48:42 88° WNW 15:53:52 10° NNE
CZ-2C R/B 2.7 15:50:42 48° SE 15:51:58 66° ENE 15:57:06 10° N
Cosmos 2100 Rocket 4.1 15:47:12 10° NNW 15:53:25 61° W 15:54:41 51° SW
Cosmos 1241 Rocket 4.4 15:48:47 10° NW 15:55:15 74° WSW 15:56:56 51° S
Cosmos 1666 Rocket 4.5 15:53:21 10° NNW 15:56:53 37° WNW 15:56:53 37° WNW
SL-14 R/B 3.8 15:58:46 51° NW 15:58:46 51° NW 16:01:59 10° N
Cosmos 2297 Rocket 3.7 15:57:04 22° SE 15:58:33 24° ESE 16:03:00 10° NE
Cosmos 1680 Rocket 4.3 15:58:34 36° W 15:59:43 41° WNW 16:04:39 10° N
Cosmos 1048 Rocket 3.9 15:59:19 63° SSE 15:59:53 69° ESE 16:04:58 10° NNE
IRIDIUM 103 4.4 15:59:02 54° SE 16:00:02 68° E 16:05:14 10° N
Cosmos 1802 Rocket 4.0 15:56:37 10° NNW 16:02:57 75° W 16:04:40 50° SSW
SL-16 R/B 4.0 16:00:57 10° WNW 16:03:47 16° W 16:03:47 16° W
Cosmos 1371 Rocket 4.3 15:59:19 10° NNW 16:04:26 48° WSW 16:04:31 48° WSW
Cosmos 1953 3.9 16:03:31 10° NNE 16:06:38 25° ENE 16:07:24 24° E
Cosmos 1459 Rocket 4.2 16:02:02 10° NNW 16:07:57 52° W 16:09:12 45° SW
Cosmos 1437 Rocket 3.6 16:08:51 39° ENE 16:08:51 39° ENE 16:11:45 10° NNE
Meteor 1-22 Rocket 4.0 16:04:32 10° NNW 16:09:56 77° W 16:10:50 61° SSW
Cosmos 2056 Rocket 4.0 16:05:09 10° NW 16:10:01 41° W 16:10:01 41° W
Cosmos 1455 4.2 16:08:50 10° NNW 16:09:26 14° NW 16:09:26 14° NW
Cosmos 2322 Rocket 3.5 16:09:25 10° NW 16:13:21 24° W 16:13:21 24° W
ATLAS 3B R/B 4.4 16:09:38 10° W 16:16:14 31° NNW 16:23:06 10° NNE
Cosmos 1331 Rocket 4.1 16:11:56 10° NNW 16:17:08 73° ENE 16:18:57 40° SE
Cosmos 1725 Rocket 4.0 16:11:51 10° NNW 16:17:59 65° W 16:19:41 47° SSW
IRIDIUM 106 4.2 16:17:18 59° SSW 16:18:19 84° W 16:23:35 10° N
COSMOS 2428 2.8 16:13:28 10° NNW 16:19:13 73° ENE 16:22:17 28° SE
CENTAUR R/B 3.5 16:11:02 10° NW 16:19:17 54° WSW 16:23:18 34° S
Cosmos 2227 Rocket 4.2 16:21:11 13° SE 16:23:56 18° E 16:27:36 10° ENE
Meteor 1-15 Rocket 4.2 16:18:39 10° NNW 16:24:28 71° W 16:26:00 49° SSW
Cosmos 1470 Rocket 4.4 16:21:27 10° NNW 16:25:01 36° WNW 16:25:01 36° WNW
NOSS 0 Rocket 4.3 16:19:53 10° NNW 16:26:05 63° ENE 16:31:55 12° SE
H-2A R/B 3.6 16:28:52 30° WNW 16:28:52 30° WNW 16:31:36 10° NNW
Cosmos 921 Rocket 3.8 16:31:23 34° SE 16:32:04 37° E 16:35:55 10° NE
Meteor 1-12 Rocket 4.2 16:26:36 10° N 16:32:19 84° E 16:34:44 37° SSE
Cosmos 44 Rocket 3.7 16:28:01 10° NNW 16:32:48 63° NE 16:37:05 13° SE
USA 267 4.3 16:27:26 10° ENE 16:33:05 30° SE 16:35:16 25° SSE
Cosmos 2360 Rocket 3.8 16:29:36 10° NW 16:32:55 19° W 16:32:55 19° W
Meteor 2-16 Rocket 4.4 16:32:00 43° S 16:34:12 90° ENE 16:40:20 10° N
IDEFIX/ARIANE 42P 2.8 16:29:55 10° NNE 16:35:08 65° ESE 16:36:54 41° SSE
Cosmos 1933 Rocket 3.6 16:32:43 10° NNW 16:37:06 60° W 16:37:26 58° WSW
Meteor 1-21 4.1 16:35:42 45° S 16:37:30 90° E 16:43:09 10° N
GEOS 3 Rocket 3.6 16:37:49 49° SSW 16:38:43 56° WSW 16:43:46 10° NW
Resurs 1-4 Rocket 3.4 16:34:48 10° NNE 16:39:31 33° E 16:42:19 20° SE
Cosmos 2233 Rocket 4.0 16:33:29 10° NNW 16:39:39 66° W 16:41:55 40° SSW
Meteor 2-21 Rocket 4.5 16:38:46 41° SSW 16:40:59 70° W 16:47:12 10° N
CZ-2C R/B 3.8 16:41:23 10° N 16:46:58 49° WNW 16:49:01 34° WSW
USA 281 3.8 16:42:46 10° NE 16:49:05 48° ESE 16:52:44 25° S
Cosmos 1869 Rocket 3.5 16:45:12 10° NNW 16:49:39 69° W 16:50:29 54° SSW
Cosmos 1892 4.1 16:52:30 20° ESE 16:53:14 22° E 16:55:40 10° NE
NPP 3.6 16:49:05 10° NNE 16:54:31 82° ESE 16:56:47 36° S
NOSS 3-2 (A) 4.2 16:49:22 10° NW 16:56:48 55° WSW 17:04:22 14° S
Cosmos 614 Rocket 4.0 16:55:36 40° S 16:57:31 78° ESE 17:02:44 10° NNE
Cosmos 2346 Rocket 4.5 16:55:17 35° SSW 16:58:04 75° W 17:04:22 10° N
Tiangong -0.5 17:00:36 26° ESE 17:00:36 26° ESE 17:02:20 10° E
Cosmos 2061 Rocket 4.4 16:55:32 10° NNW 17:01:38 47° W 17:04:04 32° SW
Okean 2 3.1 17:03:12 53° S 17:04:05 88° W 17:08:02 10° N
Cosmos 2237 Rocket 2.4 16:59:33 10° NNW 17:05:12 70° ENE 17:10:50 10° SSE
ADEOS II 3.3 17:00:38 10° NNE 17:05:27 36° E 17:09:12 15° SSE
H-2A R/B 1.8 17:01:58 10° N 17:06:06 78° WNW 17:07:09 48° SSW
NOSS 2-2 (C) 3.7 17:04:44 10° NW 17:08:58 84° SW 17:14:54 10° SSE
CZ-2D R/B 2.6 17:06:27 10° NNE 17:11:53 59° ESE 17:15:18 22° S
Cosmos 1733 Rocket 3.1 17:08:42 10° N 17:13:09 80° E 17:15:38 26° SSE
Cosmos 1862 Rocket 3.6 17:13:06 33° S 17:15:04 76° E 17:19:31 10° NNE
Cosmos 2228 Rocket 3.3 17:12:55 30° S 17:15:05 73° E 17:19:39 10° NNE
Meteor 1-16 Rocket 4.3 17:10:52 10° NNW 17:16:08 54° W 17:18:37 30° SSW
Cosmos 2263 Rocket 4.0 17:12:19 10° SSE 17:16:40 23° E 17:21:02 10° NE
Cosmos 2322 4.4 17:14:04 10° NW 17:19:04 33° WSW 17:20:26 29° SW
ALOS 3.2 17:16:13 10° NNE 17:20:34 42° E 17:23:46 17° SSE
Cosmos 1461 4.3 17:22:12 18° SSE 17:23:49 25° ESE 17:26:59 10° ENE
MOZ.5/SAFIR/RUBIN 5/SL-8 4.1 17:25:05 32° SSW 17:26:41 44° W 17:31:08 10° NNW
Cosmos 2219 Rocket 4.1 17:26:09 10° WNW 17:27:41 12° W 17:27:41 12° W
SAR-Lupe-3 3.9 17:29:17 53° SSW 17:29:49 71° WSW 17:32:47 10° NNW
Cosmos 1703 2.9 17:29:48 42° SSW 17:30:46 67° W 17:34:13 10° N
Cosmos 1452 Rocket 4.4 17:26:50 10° NW 17:31:17 29° W 17:32:31 26° SW
Cosmos 2034 Rocket 4.3 17:26:04 10° N 17:32:13 67° E 17:38:20 10° SSE
CZ-2C R/B 4.2 17:32:08 16° W 17:32:40 16° W 17:35:51 10° NW
MSX 4.3 17:27:50 10° N 17:33:21 47° WNW 17:36:33 24° SW
BREEZE-M R/B 3.5 17:34:05 18° WNW 17:36:02 60° SSW 17:44:15 10° SE
SL-16 R/B 3.6 17:35:19 10° NNW 17:40:40 41° ENE 17:45:59 10° SE
Cosmos 1953 3.6 17:39:00 10° NW 17:41:46 20° W 17:41:57 20° W
Cosmos 2297 Rocket 2.6 17:38:51 24° SW 17:42:11 53° WNW 17:47:45 10° NNE
Cosmos 1464 Rocket 4.0 17:37:32 10° NNW 17:43:53 70° W 17:49:46 12° S
Aureole 3 Rocket 3.1 17:40:10 10° NNW 17:44:22 46° W 17:45:47 29° SW
USA 276 3.0 17:48:42 26° S 17:49:22 30° SE 17:52:01 10° E
SL-16 R/B 3.1 17:43:25 10° SSE 17:49:26 59° ENE 17:55:30 10° N
NOSS 3-2 (C) 4.3 17:42:41 10° NW 17:50:07 53° WSW 17:58:45 10° SSE
Cosmos 1174 4.1 17:51:23 25° WSW 17:53:22 57° NW 17:57:47 10° NNE
NOAA 11 4.3 17:48:02 10° NNE 17:53:34 81° ESE 17:58:29 13° S
Cosmos 2219 4.2 17:50:12 10° S 17:55:32 44° ESE 18:00:56 10° NE
USA 238 DEB 4.0 17:51:07 10° NW 17:58:35 87° NE 18:06:40 10° SE
USA 238 4.1 17:51:13 10° NW 17:58:42 87° NE 18:06:46 10° SE
Cosmos 1703 Rocket 3.8 17:55:20 12° S 17:59:25 71° E 18:03:49 10° NNE
H-2A R/B 3.6 17:54:40 10° NNE 17:59:35 34° E 18:04:27 10° SSE
COSMOS 2428 4.2 17:59:10 10° WNW 18:02:45 17° W 18:04:13 16° WSW
RESURS DK-1 4.2 18:02:12 10° SSE 18:05:31 25° ESE 18:08:51 10° NE
Cosmos 2227 Rocket 2.3 18:02:59 17° SW 18:07:20 70° WNW 18:12:59 10° NNE
OAO 2 Rocket 4.4 18:06:49 17° SW 18:09:36 27° S 18:13:59 10° SE
Cosmos 2084 3.4 18:08:04 18° SW 18:11:11 85° SE 18:15:20 10° NE
Cosmos 1980 4.4 18:06:50 10° NW 18:11:52 33° WSW 18:16:51 10° SSW
Milstar 3 4.2 18:06:57 15° SW 18:12:50 26° S 18:18:37 10° SE
Aureole 3 4.1 18:09:51 10° SSE 18:12:54 43° E 18:16:29 10° NNE
IDEFIX/ARIANE 42P 4.3 18:10:29 10° NNW 18:14:05 19° WNW 18:17:36 10° WSW
Meteor 2-17 Rocket 4.4 18:08:51 10° S 18:14:57 87° W 18:21:04 10° N
USA 267 3.3 18:09:56 10° NE 18:16:31 82° NW 18:22:37 12° WSW
NOSS 2-2 (E) 4.3 18:14:32 10° NW 18:18:40 40° WSW 18:24:17 10° S
Resurs 1-4 Rocket 3.0 18:14:33 10° N 18:19:16 35° WNW 18:23:22 13° SW
Cosmos 1269 Rocket 4.0 18:15:50 12° SSW 18:20:41 80° WNW 18:26:00 10° NNE
Tsikada Rocket 4.0 18:16:17 10° SSW 18:22:26 75° W 18:28:37 10° N
Cosmos 1300 Rocket 3.8 18:19:43 10° N 18:24:02 71° E 18:28:22 10° SSE
Okean 1-7 4.1 18:21:35 14° SW 18:24:28 29° WNW 18:28:10 10° NNW
Cosmos 2082 4.3 18:19:40 10° S 18:25:10 56° ESE 18:30:45 10° NNE
Cosmos 1892 4.1 18:24:45 13° WSW 18:26:09 16° WNW 18:28:11 10° NNW
Cosmos 2279 Rocket 4.5 18:21:33 10° N 18:27:45 66° E 18:33:51 10° SSE
Cosmos 1634 Rocket 4.0 18:23:15 10° N 18:29:37 84° W 18:35:56 10° S
H-2A R/B 3.3 18:26:01 10° NNE 18:29:55 82° ESE 18:33:49 10° SSW
CZ-2C R/B 3.4 18:28:21 10° NNE 18:32:47 43° E 18:37:06 10° S
USA 281 4.0 18:27:30 10° N 18:33:25 37° NW 18:39:20 10° WSW
Envisat 3.3 18:28:36 10° N 18:33:30 51° WNW 18:38:23 10° SW
NOSS 3-4 (A) 3.6 18:30:41 11° WSW 18:35:41 53° NW 18:41:29 10° NNE
Meteor 1-28 Rocket 3.0 18:32:21 10° S 18:35:43 60° W 18:39:08 10° NNW
Tiangong -1.8 18:32:48 10° W 18:35:51 46° S 18:38:55 10° ESE
NOSS 3-4 (C) 3.6 18:30:54 11° WSW 18:35:53 53° NW 18:41:41 10° NNE
COSMOS 2455 2.9 18:31:15 10° NW 18:37:10 59° WSW 18:43:03 10° SSE
Cosmos 1908 Rocket 4.2 18:38:03 10° NNW 18:42:00 36° W 18:45:56 10° SSW
ADEOS II 3.1 18:40:21 10° N 18:44:56 32° WNW 18:49:29 10° SW
Cosmos 2237 Rocket 3.6 18:44:56 10° WNW 18:48:36 18° W 18:52:17 10° SW
USA 290 2.4 18:46:55 10° SSW 18:50:04 70° ESE 18:53:14 10° NNE
Cosmos 1140 Rocket 3.6 18:45:01 10° SSW 18:50:11 65° WNW 18:55:21 10° NNE
USA 234 3.4 18:44:48 10° SE 18:51:21 90° ENE 18:57:56 10° NW
CZ-2D R/B 3.7 18:47:18 10° NNW 18:51:24 22° WNW 18:55:30 10° WSW
Helios 1A Rocket 2.6 18:51:55 10° S 18:55:23 60° WSW 18:58:54 10° NNW
